Weather History for TNCE - March, 2013

Change the Weather History Date:

Tuesday, March 12, 2013

  Actual Average Record
Temperature  
Mean Temperature 80 °F -  
Max Temperature 86 °F 82 °F 91 °F (2014)
Min Temperature 75 °F 75 °F 32 °F (2015)
Cooling Degree Days 16    
Growing Degree Days 30 (Base 50)    
Moisture  
Dew Point 68 °F    
Average Humidity 65    
Maximum Humidity 78    
Minimum Humidity 54    
Precipitation  
Precipitation 0.00 in - - ()
Sea Level Pressure  
Sea Level Pressure 30.01 in    
Wind  
Wind Speed 11 mph ()    
Max Wind Speed 16 mph    
Max Gust Speed -    
Visibility 7.9 miles    
Events      
Averages and records for this station are not official NWS values.
T = Trace of Precipitation, MM = Missing Value Source: Averaged Metar Reports

Daily Weather History Graph

Daily Weather History Graph

Search for Another Location

Airport or City:

Trip Planner

Search our weather history database for the weather conditions in past years. The results will help you decide how hot, cold, wet, or windy it might be!

Date:

Astronomy

Mar. 12, 2013 Rise Set
Actual Time 6:22 AM AST 6:21 PM AST
Civil Twilight 6:00 AM AST 6:42 PM AST
Nautical Twilight 5:35 AM AST 7:08 PM AST
Astronomical Twilight 5:10 AM AST 7:33 PM AST
Moon 6:39 AM AST (3/12) 7:13 PM AST (3/12)
Length of Visible Light 12h 42m
Length of Day
11h 59m
New Moon, 1% of the Moon is Illuminated
Mar 12
New Moon
Mar 19
First Quarter
Mar 27
Full
Apr 3
Last Quarter
Apr 10
New

Hourly Weather History & Observations

Time (AST) Temp. Heat Index Dew Point Humidity Pressure Visibility Wind Dir Wind Speed Gust Speed Precip Events Conditions
12:00 AM - - - N/A% 30.01 in - NNE 9.2 mph - N/A   Unknown
1:00 AM - - - N/A% 29.98 in - NNE 11.5 mph - N/A   Unknown
2:00 AM - - - N/A% 29.98 in - NNE 10.4 mph - N/A   Unknown
3:00 AM - - - N/A% 29.95 in - NNE 10.4 mph - N/A   Unknown
4:00 AM - - - N/A% 29.95 in - NE 12.7 mph - N/A   Unknown
5:00 AM - - - N/A% 29.98 in - NNE 12.7 mph - N/A   Unknown
7:00 AM 75.2 °F - 62.6 °F 65% 30.01 in 6.2 mi NNE 11.5 mph - N/A   Partly Cloudy
8:00 AM - - - %  in 19 mi NE 9.2 mph - -   Scattered Clouds
8:00 AM 75.2 °F - 62.6 °F 65% 30.04 in 6.2 mi NNE 11.5 mph - N/A   Partly Cloudy
9:00 AM - - - N/A% 30.06 in 6.2 mi NNE 12.7 mph - N/A   Partly Cloudy
10:00 AM 86.0 °F 90.4 °F 69.8 °F 58% 30.06 in 6.2 mi NE 15.0 mph - N/A   Partly Cloudy
11:00 AM 80.6 °F 82.7 °F 66.2 °F 61% 30.06 in 6.2 mi NNE 16.1 mph - N/A   Partly Cloudy
12:00 PM 80.6 °F 83.2 °F 68.0 °F 65% 30.06 in 6.2 mi NE 15.0 mph - N/A   Partly Cloudy
1:00 PM 80.6 °F 82.7 °F 66.2 °F 61% 30.04 in 6.2 mi NE 16.1 mph - N/A   Partly Cloudy
2:00 PM 82 °F - 68 °F 54%  in 6 mi NE 16.1 mph - -   Clear
2:00 PM 82.4 °F 85.4 °F 68.0 °F 62% 30.01 in 6.2 mi NE 16.1 mph - N/A   Partly Cloudy
3:00 PM 82.4 °F 86.3 °F 69.8 °F 66% 29.98 in 6.2 mi NE 15.0 mph - N/A   Partly Cloudy
4:00 PM 82.4 °F 86.3 °F 69.8 °F 66% 29.98 in 6.2 mi ENE 15.0 mph - N/A   Partly Cloudy
5:00 PM 81 °F - 72 °F 66%  in 19 mi NE 13.8 mph - -   Scattered Clouds
5:00 PM 80.6 °F 84.6 °F 71.6 °F 74% 30.01 in 6.2 mi NE 13.8 mph - N/A   Partly Cloudy
6:00 PM 78.8 °F - 71.6 °F 78% 30.01 in 6.2 mi NE 13.8 mph - N/A   Partly Cloudy
7:00 PM - - - N/A% 30.01 in - NE 12.7 mph - N/A   Unknown
8:00 PM - - - %  in - ENE 15.0 mph - -   Clear
8:00 PM - - - N/A% 30.01 in - ENE 10.4 mph - N/A   Unknown
9:00 PM - - - N/A% 30.04 in - NE 13.8 mph - N/A   Unknown
10:00 PM - - - N/A% 30.04 in - NE 12.7 mph - N/A   Unknown
11:00 PM - - - %  in - ENE 12.7 mph - -   Clear
11:00 PM - - - N/A% 30.04 in - NE 12.7 mph - N/A   Unknown